This is the latest recevied weather packets stored in our database for station/object KF0TNT. If no packets are shown the sender has not sent any weather packets the latest 10 day(s).
| Time | Temp. | Humidity | Pressure | Rain* | Wind** | Luminosity | Snow |
|---|---|---|---|---|---|---|---|
| 1777563738 | 1.11° C | 92% | 1021.5 hPa | 0 mm | - | 70 W/m² | - |
| 1777563435 | 1.11° C | 92% | 1021.7 hPa | 0 mm | - | 76 W/m² | - |
| 1777563134 | 1.11° C | 92% | 1021.6 hPa | 0 mm | - | 76 W/m² | - |
| 1777562830 | 0.56° C | 92% | 1021.7 hPa | 0 mm | - | 56 W/m² | - |
| 1777562528 | 0.56° C | 93% | 1021.7 hPa | 0 mm | - | 60 W/m² | - |
| 1777562225 | 0.56° C | 94% | 1021.7 hPa | 0 mm | - | 61 W/m² | - |
| 1777561923 | 0.56° C | 95% | 1021.6 hPa | 0 mm | - | 52 W/m² | - |
| 1777561620 | 0.56° C | 96% | 1022 hPa | 0 mm | - | 46 W/m² | - |
| 1777561316 | 0.56° C | 96% | 1021.8 hPa | 0 mm | - | 39 W/m² | - |
| 1777561016 | 0.56° C | 97% | 1021.6 hPa | 0 mm | - | 34 W/m² | - |
| 1777560711 | 0.56° C | 97% | 1022.1 hPa | 0 mm | - | 35 W/m² | - |
| 1777560409 | 0.56° C | 97% | 1022.1 hPa | 0 mm | - | 28 W/m² | - |
| 1777560107 | 0.56° C | 97% | 1021.8 hPa | 0 mm | - | 24 W/m² | - |
| 1777559803 | 0.56° C | 97% | 1022.1 hPa | 0 mm | - | 17 W/m² | - |
| 1777559500 | 0.56° C | 97% | 1022 hPa | 0 mm | - | 17 W/m² | - |
| 1777559197 | 0.56° C | 97% | 1022 hPa | 0 mm | - | 18 W/m² | - |
| 1777558897 | 0.56° C | 97% | 1022.1 hPa | 0 mm | - | 20 W/m² | - |
| 1777558593 | 0.56° C | 97% | 1022.1 hPa | 0 mm | - | 19 W/m² | - |
| 1777558288 | 0.56° C | 97% | 1022 hPa | 0 mm | - | 17 W/m² | - |
| 1777557985 | 0.56° C | 97% | 1022 hPa | 0 mm | - | 15 W/m² | - |
| 1777557682 | 0.56° C | 97% | 1022.1 hPa | 0 mm | - | 15 W/m² | - |
| 1777557379 | 0.56° C | 96% | 1022 hPa | 0 mm | - | 14 W/m² | - |
| 1777557075 | 0.56° C | 96% | 1021.8 hPa | 0 mm | - | 19 W/m² | - |
| 1777556770 | 0.56° C | 96% | 1021.8 hPa | 0 mm | - | 19 W/m² | - |
| 1777556468 | 0.56° C | 96% | 1021.7 hPa | 0 mm | - | 19 W/m² | - |
* Rain latest hour (hover to see other rain measurements)
** Current wind speed in m/s (hover to see current wind gust speed)